Location: Fort Myers
(26.6406°N, 81.8723°W)
Time: 13:47:09
(UTC+00:00)

Daily predictions for brighter satellites

Satellite Brightness Start Highest point End
(mag) Time Altitude Azimuth Time Altitude Azimuth Time Altitude Azimuth
SKYMED 2 4.4 22:50:02 10° NE 22:53:52 30° E 22:57:41 10° SSE
Cosmos 1933 3.7 22:50:12 10° S 22:54:14 73° W 22:58:16 10° N
Cosmos 1570 Rocket 4.5 22:50:38 10° S 22:55:31 41° E 23:00:25 10° NNE
SMAP 3.1 22:52:18 10° SSE 22:56:52 63° ENE 23:01:27 10° N
Cosmos 540 Rocket 4.1 22:52:34 10° SSW 22:57:36 61° WNW 23:02:38 10° N
Cosmos 1500 Rocket 3.5 22:53:13 10° N 22:57:39 80° E 23:02:00 10° S
USA 234 4.2 22:52:36 10° E 22:57:46 26° NE 23:02:56 10° NNW
PSLV R/B 4.4 22:55:25 10° SE 22:58:41 31° ENE 23:01:57 10° NNE
Atlas Centaur 2 3.6 22:56:32 10° WSW 22:59:20 20° SSW 23:02:01 10° SSE
CZ-4B R/B 4.2 22:57:12 10° ESE 23:01:28 24° ENE 23:05:41 10° NNE
Cosmos 1814 Rocket 4.1 22:57:27 10° S 23:02:36 59° ESE 23:07:43 10° NNE
Delta 128 4.5 22:58:26 10° W 23:05:26 84° N 23:11:18 10° E
CZ-2C R/B 4.2 23:04:20 10° S 23:09:12 47° W 23:13:53 10° NNW
Sich 1 3.4 23:05:08 10° N 23:09:12 42° E 23:13:18 10° SSE
Cosmos 1805 Rocket 3.6 23:05:00 10° N 23:09:15 57° E 23:13:30 10° SSE
Cosmos 1900 4.4 23:04:58 10° S 23:09:44 59° ESE 23:14:31 10° NNE
GPS 2-04 Rocket1 4.3 23:06:33 10° NW 23:09:50 22° N 23:12:58 11° NE
Cosmos 1809 Rocket 4.4 23:04:21 10° N 23:10:21 62° E 23:16:21 10° SSE
NOSS 3-1 (A) 4.4 23:03:21 10° NNW 23:11:17 53° ENE 23:20:05 10° SE
NOSS 3-1 (C) 4.3 23:03:37 10° NNW 23:11:53 86° ENE 23:21:03 10° SSE
Cosmos 44 3.3 23:09:52 10° NNW 23:14:25 74° WSW 23:18:42 10° SSE
CZ-2C R/B 2.6 23:09:43 10° NNE 23:14:49 60° E 23:19:54 10° S
Meteor 1-20 Rocket 4.4 23:11:11 10° N 23:17:03 83° W 23:22:52 10° S
AQUARIUS 4.2 23:13:26 10° SSE 23:17:55 86° WSW 23:22:25 10° NNW
MOS 1-B 4.5 23:12:52 10° SSE 23:18:25 51° ENE 23:23:58 10° N
Intercosmos 25 4.3 23:12:02 10° N 23:19:47 82° E 23:24:25 10° S
CZ-4C R/B 3.9 23:18:26 11° NE 23:21:08 27° E 23:24:03 10° SSE
Cosmos 1898 Rocket 3.4 23:16:32 10° N 23:21:45 73° ENE 23:26:54 10° SSE
Cosmos 2084 3.8 23:18:29 10° NNW 23:22:45 45° ENE 23:27:09 10° SE
Cosmos 1666 3.7 23:20:28 10° NNE 23:23:29 23° E 23:26:29 10° SE
Cosmos 1939 Rocket 4.3 23:22:33 10° S 23:26:28 42° W 23:30:22 10° NNW
CCE 1 Rocket 4.2 23:24:09 10° SW 23:28:25 42° SSE 23:31:02 17° E
Cosmos 2208 Rocket 4.0 23:23:08 10° S 23:28:26 72° ESE 23:33:49 10° NNE
Cosmos 1812 2.9 23:26:02 10° S 23:29:51 75° W 23:33:41 10° N
H-2A R/B 2.0 23:26:00 10° SSE 23:31:14 70° ENE 23:36:20 10° N
CZ-4C R/B 4.1 23:26:20 10° N 23:32:10 22° NE 23:36:22 16° E
X-37B 0.2 23:31:11 10° SW 23:34:02 82° SE 23:35:19 29° NE
APEX 3.9 23:29:53 10° S 23:34:25 42° ESE 23:36:46 20° NE
COSMO-SKYMED 1 3.1 23:37:38 10° N 23:41:55 61° WNW 23:46:11 10° SSW
USA 276 3.6 23:39:33 10° NNW 23:41:30 22° NNE 23:41:30 22° NNE
Cosmos 921 Rocket 2.8 23:40:06 10° S 23:44:12 65° ESE 23:47:24 16° NNE
Aurora 2 Rocket 3.5 23:43:27 10° W 23:48:31 67° S 23:53:57 18° ESE
BREEZE-M DEB (TANK) 2.8 23:44:24 10° NW 23:48:53 67° NE 23:49:46 37° ESE
Tiangong 2.7 23:46:39 10° S 23:49:06 21° SE 23:49:08 21° SE
SWIFT 3.8 23:48:53 10° WSW 23:52:40 31° S 23:55:12 17° SE
Cosmos 1633 Rocket 3.0 23:48:42 10° N 23:53:01 60° E 23:57:21 10° SSE
Meteor 1-14 Rocket 4.2 23:47:37 10° N 23:53:30 73° E 23:59:26 10° SSE
Okean O Rocket 1.5 23:49:22 10° SSE 23:53:44 64° ENE 23:58:08 10° N
